Tracking 30289 objects as of 29-Apr-2025
HD Live streaming from Space Station
objects crossing your sky now

JILIN-01 GAOFEN 4A

Track JILIN-01 GAOFEN 4A now!
10-day predictions


NORAD ID: 52388
Int'l Code: 2022-046A
Perigee: 431.3 km
Apogee: 440.4 km
Inclination: 97.5 °
Period: 93.1 minutes
Semi major axis: 6806 km
RCS: Unknown
Launch date: April 30, 2022
Source: People's Republic of China (PRC)
Launch site: Yellow Sea Launch Area, China (YSLA)
Your satellite tracking list
Your tracking list is empty




NASA's NSSDC Master Catalog

Two Line Element Set (TLE):
1 52388U 22046A   25119.20182298  .00047990  00000-0  98331-3 0  9996
2 52388  97.4841 215.5991 0006748  67.2117 292.9844 15.45908574166113
Source of the keplerian elements: AFSPC